Regional Weather Roundup
Issued by NWS

Home | Current Version | Previous Version | Graphics & Text | Print | Product List | Glossary On
Versions: 1 2 3 4 5 6 7 8 9 10 11 12 13 14 15 16 17 18 19 20 21 22 23 24 25 26 27 28 29 30 31 32 33 34 35 36 37 38 39 40 41 42 43 44 45 46 47 48 49 50
000
ASUS43 KMPX 152110
RWRMN
WEATHER ROUNDUP FOR MINNESOTA
NATIONAL WEATHER SERVICE TWIN CITIES/CHANHASSEN MN
400 PM CDT TUE APR 15 2014


NOTE: "FAIR" INDICATES FEW OR NO CLOUDS BELOW 12,000 FEET WITH NO
SIGNIFICANT WEATHER AND/OR OBSTRUCTIONS TO VISIBILITY. N/A MEANS
CURRENT SKY AND/OR WEATHER CONDITIONS ARE NOT AVAILABLE.

MNZ060>063-068>070-152200-
   Twin Cities Metro

CITY           SKY/WX    TMP DP  RH WIND       PRES   REMARKS
TWIN CITIES    PTSUNNY   34   0  23 VRB3      30.07F
ST PAUL        SUNNY     36   2  23 S8        30.08F
CRYSTAL        FAIR      35   2  24 SW8       30.05F WCI  29
EDEN PRAIRIE   SUNNY     37   3  24 SW7       30.05F
LAKEVILLE      SUNNY     36   7  30 W5        30.06F
SOUTH ST PAUL  MOSUNNY   38   1  21 S6        30.06F
LAKE ELMO      FAIR      36   5  27 W3        30.06F
$$
MNZ001>005-007-008-013>017-022>024-027-028-152200-
   Northwest Minnesota

CITY           SKY/WX    TMP DP  RH WIND       PRES   REMARKS
BEMIDJI        SUNNY     30  -3  24 E5        30.01S WCI  25
HALLOCK        PTSUNNY   27  10  50 S3        30.04F
ROSEAU         SUNNY     27   1  33 CALM      30.05F
WARROAD        SUNNY     25   7  46 E8        30.06F WCI  16
THIEF RVR FALL SUNNY     28   5  37 E3        30.03F
CROOKSTON      SUNNY     30  10  43 S6        30.03F WCI  24
FOSSTON        MOSUNNY   34   7  32 CALM      30.01F
DETROIT LAKES  MOSUNNY   32   3  29 S8        30.01F WCI  25
MOORHEAD       MOSUNNY   32   9  37 SE7       30.03F WCI  26
PARK RAPIDS    MOSUNNY   31  -1  25 VRB5      29.99F WCI  26
$$
MNZ006-009>011-018-025>026-152200-
   North Central Minnesota

CITY           SKY/WX    TMP DP  RH WIND       PRES   REMARKS
BAUDETTE       SUNNY     26   2  35 N8        30.05F WCI  18
FLAG ISLAND    SUNNY     19   5  53 S7        30.06S WCI  10
INTL FALLS     SUNNY     27   0  31 MISG      30.03F
WASKISH        SUNNY     28   5  37 W7        30.04F WCI  21
BIG FORK       SUNNY     30  -2  24 W5        30.02F WCI  25
LONGVILLE      SUNNY     30  -6  21 NE3       30.02S
GRAND RAPIDS   SUNNY     28  -4  24 NW9       30.02F WCI  20
CRANE LAKE     SUNNY     28   3  34 NW8       30.05F WCI  20
ORR            SUNNY     28  -2  26 NW7       29.99F WCI  21
COOK           SUNNY     28   0  29 W5        30.02F WCI  23
$$
MNZ012-019>021-037-152200-
   Northeast Minnesota

CITY           SKY/WX    TMP DP  RH WIND       PRES   REMARKS
DULUTH         MOSUNNY   28   1  31 VRB5      30.01F WCI  23
ELY            SUNNY     27   0  31 NW6       30.01S WCI  20
HIBBING        SUNNY     30   0  27 CALM      30.01F
EVELETH        SUNNY     30   3  31 W5        30.01F WCI  25
DULUTH HARBOR  SUNNY     32  -4  21 CALM      30.07F
TWO HARBORS    SUNNY     28   3  34 W5        30.01F WCI  23
SILVER BAY     SUNNY     28  14  54 S14       30.00F WCI  17
GRAND MARAIS     N/A     28  15  58 SW20G28   30.04S WCI  15
G MARAIS ARPRT SUNNY     25  -6  26 W7        29.97S WCI  17
$$
MNZ029>031-032-039>041-046>048-054>057-064-152200-
   West Central Minnesota

CITY           SKY/WX    TMP DP  RH WIND       PRES   REMARKS
FERGUS FALLS   SUNNY     32   0  25 S7        29.99F WCI  26
WHEATON        MOSUNNY   37  14  38 SE9       30.01F
MORRIS         MOSUNNY   36   7  30 SE9       30.00F
ALEXANDRIA     CLOUDY    32   3  29 S6        30.01F WCI  26
ELBOW LAKE     FAIR      32   4  30 S6        30.00F WCI  27
WADENA         MOSUNNY   30   5  34 SE3       30.01S
GLENWOOD       MOSUNNY   34   0  23 S7        30.01F WCI  28
APPLETON       CLOUDY    37   7  28 E8G16     30.00F
BENSON         PTSUNNY   36   7  30 S6        30.02F
ORTONVILLE     MOSUNNY   36   9  32 SE10      29.99S
MADISON        MOSUNNY   43  12  28 SE16      29.98F
WILLMAR        FAIR      36   0  21 SE6       30.04F
$$
MNZ033>034-036-042>043-049>051-058-059-152200-
   Central Minnesota

CITY           SKY/WX    TMP DP  RH WIND       PRES   REMARKS
ST CLOUD       SUNNY     35   3  26 S9        30.04F WCI  28
SAUK CENTRE    FAIR      33   6  32 S5        30.03F WCI  29
PAYNESVILLE    MOSUNNY   33   5  31 CALM      30.04F
AITKIN         SUNNY     34 -13  13 CALM      30.02F
PINE RIVER     SUNNY     30   3  31 CALM      30.04F
BRAINERD       SUNNY     34  -4  19 CALM      30.03F
STAPLES        SUNNY     32   0  25 S5        30.02F WCI  27
LONG PRAIRIE   FAIR      32   9  37 SE6       30.02F WCI  26
LITTLE FALLS   SUNNY     32   0  25 S3        30.04F
LITCHFIELD     SUNNY     36   3  25 SW6       30.05S
BUFFALO        MOSUNNY   34   5  29 SE5       30.06F WCI  30
MAPLE LAKE     SUNNY     36   7  30 S3        30.06F
$$
MNZ037-044-045-052-053-152200-
   East Central Minnesota

CITY           SKY/WX    TMP DP  RH WIND       PRES   REMARKS
PRINCETON      SUNNY     36   1  23 CALM      30.05F
MORA           SUNNY     32   5  32 S6        30.06F WCI  26
CAMBRIDGE      SUNNY     34  12  40 NW5       30.04F WCI  30
RUSH CITY      MOSUNNY   32   6  32 W8        30.06F WCI  25
MOOSE LAKE     SUNNY     32   1  27 S5        30.02F WCI  27
HINCKLEY       FAIR      32  -2  23 W7        30.06S WCI  26
CLOQUET        SUNNY     30  -6  21 CALM      30.02F
MCGREGOR       SUNNY     32   0  25 CALM      30.03F
$$
MNZ071>073-080-081-089-090-097-098-152200-
   Southwest Minnesota

CITY           SKY/WX    TMP DP  RH WIND       PRES   REMARKS
MONTEVIDEO     CLOUDY    39  10  30 S7        30.02F
GRANITE FALLS  CLOUDY    38   8  28 SE7       30.03F
CANBY          CLOUDY    42  10  27 SE9G21    29.97F
MARSHALL       MOSUNNY   41  10  28 SE16G22   29.97F
REDWOOD FALLS  PTSUNNY   36   8  31 VRB6      30.03F
OLIVIA         PTSUNNY   36  12  38 SE5       30.03F
PIPESTONE      PTSUNNY   41  12  30 S16       29.93F
WINDOM         CLOUDY    39   5  24 SE8       30.01F
WORTHINGTON    SUNNY     39  12  33 S12G21    30.00F
JACKSON        PTSUNNY   39   7  26 SE10G17   30.01F
TRACY          CLOUDY    41  11  29 S10       29.98F
SLAYTON        CLOUDY    42   9  26 SE13G20   29.96F
$$
MNZ065>067-074>077-082>085-091>093-152200-
   South Central Minnesota

CITY           SKY/WX    TMP DP  RH WIND       PRES   REMARKS
MANKATO        SUNNY     36   3  25 CALM      30.06F
NEW ULM        PTSUNNY   36   7  30 CALM      30.05F
ST JAMES       MOSUNNY   37   7  28 SE3       30.05F
FAIRMONT       SUNNY     36   7  30 S7        30.06F
GLENCOE        PTSUNNY   35   3  25 W3        30.05F
FARIBAULT      SUNNY     37   1  22 SE6       30.07F
OWATONNA       SUNNY     36   9  32 W7        30.07F
WASECA         SUNNY     37  12  35 CALM      30.08F
ALBERT LEA     SUNNY     36   9  32 SW7       30.07F
$$
MNZ078>079-086>088-094>096-152200-
   Southeast Minnesota

CITY           SKY/WX    TMP DP  RH WIND       PRES   REMARKS
ROCHESTER      SUNNY     34  15  46 MISG      30.07F
RED WING       SUNNY     37   3  23 W3        30.07F
STANTON        MOSUNNY   36   6  28 W3        30.06F
DODGE CENTER   SUNNY     36   3  25 SW8       30.06F
WINONA         MOSUNNY   36  12  38 NW3       30.11S
AUSTIN         SUNNY     34  10  37 SW8G20    30.07F WCI  27
PRESTON        SUNNY     34  13  42 W3        30.09S
$$
ABBREVIATIONS USED IN REMARKS
   TC - TEMPERATURES IN CELSIUS
  WCI - WIND CHILL INDEX
   HX - HEAT INDEX
  VSB - VISIBILITY
$$


USA.gov is the U.S. government's official web portal to all federal, state and local government web resources and services.